User: anonymous   Login
Location: Unspecified
(0.0000°N, 0.0000°E)
Time: 13:01:21
(UTC+02:00)
Language:

ARIANE 5 R/B - Orbit

View from above orbital plane
View from above orbital plane
View from above satellite
View from above satellite

Ground track
Ground track

The orbit data is extracted from the following two-line orbital elements,

1 28886U 05041C   17145.02829859 -.00000204 +00000-0 -14246-3 0  9991
2 28886 008.3134 011.2949 7195045 080.4486 009.1657 02.24336819095156
Epoch (UTC): 25 May 2017 00:40:44
Eccentricity: 0.7195045
inclination: 8.3134°
perigee height: 536 km
apogee height: 36006 km
right ascension of ascending node: 11.2949°
argument of perigee: 80.4486°
revolutions per day: 2.24336819
mean anomaly at epoch: 9.1657°
orbit number at epoch: 9515

The dashed part of the orbit path shows where the satellite is in the earth's shadow,  

DLR